Weather History for Glendive, MT

Change the Weather History Date:

Thursday, November 22, 2012

  Actual Average Record
Temperature  
Mean Temperature 24 °F -  
Max Temperature 39 °F 35 °F 60 °F (2005)
Min Temperature 10 °F 18 °F -2 °F (2013)
Degree Days  
Heating Degree Days 40    
Moisture  
Dew Point 16 °F    
Average Humidity 76    
Maximum Humidity 93    
Minimum Humidity 59    
Precipitation  
Precipitation 0.00 in - - ()
Sea Level Pressure  
Sea Level Pressure 30.20 in    
Wind  
Wind Speed 17 mph (NW)    
Max Wind Speed 29 mph    
Max Gust Speed 36 mph    
Visibility 10 miles    
Events      
Averages and records for this station are not official NWS values.
T = Trace of Precipitation, MM = Missing Value Source: NWS Daily Summary

Daily Weather History Graph

Daily Weather History Graph

Search for Another Location

Airport:

Trip Planner

Search our weather history database for the weather conditions in past years. The results will help you decide how hot, cold, wet, or windy it might be!

Date:

Astronomy

Nov. 22, 2012 Rise Set
Actual Time 7:13 AM MST 4:16 PM MST
Civil Twilight 6:39 AM MST 4:50 PM MST
Nautical Twilight 6:02 AM MST 5:28 PM MST
Astronomical Twilight 5:25 AM MST 6:04 PM MST
Moon 1:21 PM MST (11/22) 1:16 AM MST (11/22)
Length of Visible Light 10h 11m
Length of Day
9h 03m
Waxing Gibbous, 72% of the Moon is Illuminated
Nov 22
Waxing Gibbous
Nov 28
Full
Dec 6
Last Quarter
Dec 13
New
Dec 19
First Quarter

Hourly Weather History & Observations

Time (MST) Temp. Windchill Dew Point Humidity Pressure Visibility Wind Dir Wind Speed Gust Speed Precip Events Conditions
12:15 AM 37.4 °F 31.4 °F 35.6 °F 93% 29.79 in 10.0 mi NW 8.1 mph - N/A   Mostly Cloudy
12:35 AM 39.2 °F 29.6 °F 37.4 °F 93% 29.81 in 10.0 mi WNW 19.6 mph 24.2 mph N/A   Overcast
12:55 AM 39.2 °F 30.2 °F 35.6 °F 87% 29.80 in 10.0 mi NW 17.3 mph 23.0 mph N/A   Mostly Cloudy
1:15 AM 37.4 °F 27.2 °F 33.8 °F 87% 29.81 in 10.0 mi NW 19.6 mph 27.6 mph N/A   Scattered Clouds
1:35 AM 37.4 °F 26.4 °F 33.8 °F 87% 29.81 in 10.0 mi NW 23.0 mph 29.9 mph N/A   Mostly Cloudy
1:55 AM 37.4 °F 26.9 °F 32.0 °F 81% 29.83 in 10.0 mi NW 20.7 mph 29.9 mph N/A   Mostly Cloudy
2:15 AM 35.6 °F 24.0 °F 32.0 °F 87% 29.85 in 10.0 mi NW 23.0 mph 27.6 mph N/A   Mostly Cloudy
2:35 AM 35.6 °F 23.7 °F 30.2 °F 81% 29.86 in 10.0 mi NW 24.2 mph 29.9 mph N/A   Mostly Cloudy
2:55 AM 35.6 °F 24.2 °F 30.2 °F 81% 29.88 in 10.0 mi NW 21.9 mph 29.9 mph N/A   Scattered Clouds
3:15 AM 33.8 °F 21.9 °F 28.4 °F 81% 29.88 in 10.0 mi NW 21.9 mph 28.8 mph N/A   Scattered Clouds
3:35 AM 33.8 °F 21.9 °F 28.4 °F 81% 29.88 in 10.0 mi NW 21.9 mph - N/A   Scattered Clouds
3:55 AM 32.0 °F 20.1 °F 28.4 °F 87% 29.89 in 10.0 mi NW 19.6 mph 27.6 mph N/A   Scattered Clouds
4:15 AM 30.2 °F 17.1 °F 26.6 °F 86% 29.90 in 10.0 mi NW 21.9 mph 28.8 mph N/A   Partly Cloudy
4:35 AM 30.2 °F 18.5 °F 26.6 °F 86% 29.91 in 10.0 mi NW 17.3 mph 27.6 mph N/A   Partly Cloudy
4:55 AM 30.2 °F 18.1 °F 26.6 °F 86% 29.92 in 10.0 mi NW 18.4 mph 23.0 mph N/A   Scattered Clouds
5:15 AM 30.2 °F 17.1 °F 24.8 °F 80% 29.94 in 10.0 mi NW 21.9 mph 27.6 mph N/A   Overcast
5:35 AM 30.2 °F 19.3 °F 24.8 °F 80% 29.97 in 10.0 mi NW 15.0 mph 26.5 mph N/A   Overcast
5:55 AM 30.2 °F 21.3 °F 24.8 °F 80% 29.99 in 10.0 mi NNW 10.4 mph 18.4 mph N/A   Overcast
6:15 AM 30.2 °F 19.3 °F 24.8 °F 80% 30.00 in 10.0 mi NW 15.0 mph - N/A   Overcast
6:35 AM 30.2 °F 20.2 °F 24.8 °F 80% 30.00 in 10.0 mi NW 12.7 mph - N/A   Overcast
6:55 AM 28.4 °F 17.0 °F 23.0 °F 80% 30.02 in 10.0 mi NW 15.0 mph 21.9 mph N/A   Overcast
7:15 AM 28.4 °F 16.2 °F 23.0 °F 80% 30.03 in 10.0 mi NW 17.3 mph - N/A   Overcast
7:35 AM 28.4 °F 18.5 °F 23.0 °F 80% 30.04 in 10.0 mi NW 11.5 mph - N/A   Overcast
7:55 AM 28.4 °F 17.5 °F 23.0 °F 80% 30.06 in 10.0 mi NW 13.8 mph 17.3 mph N/A   Overcast
8:15 AM 28.4 °F 16.2 °F 23.0 °F 80% 30.07 in 10.0 mi NW 17.3 mph 25.3 mph N/A   Overcast
8:35 AM 28.4 °F 15.1 °F 23.0 °F 80% 30.07 in 10.0 mi NW 20.7 mph 26.5 mph N/A   Overcast
8:55 AM 28.4 °F 15.8 °F 23.0 °F 80% 30.08 in 10.0 mi NNW 18.4 mph 24.2 mph N/A   Overcast
9:15 AM 26.6 °F 14.7 °F 21.2 °F 80% 30.11 in 10.0 mi NNW 15.0 mph 21.9 mph N/A   Overcast
9:35 AM 26.6 °F 14.3 °F 19.4 °F 74% 30.12 in 10.0 mi NNW 16.1 mph 24.2 mph N/A   Overcast
9:55 AM 24.8 °F 11.5 °F 17.6 °F 74% 30.14 in 10.0 mi NNW 17.3 mph - N/A   Overcast
10:15 AM 24.8 °F 11.5 °F 17.6 °F 74% 30.16 in 10.0 mi NW 17.3 mph 21.9 mph N/A   Overcast
10:35 AM 24.8 °F 11.5 °F 15.8 °F 69% 30.17 in 10.0 mi NW 17.3 mph 27.6 mph N/A   Overcast
10:55 AM 23.0 °F 7.6 °F 12.2 °F 63% 30.17 in 10.0 mi NW 21.9 mph 28.8 mph N/A   Overcast
11:15 AM 23.0 °F 8.7 °F 12.2 °F 63% 30.19 in 10.0 mi NW 18.4 mph 26.5 mph N/A   Overcast
11:35 AM 23.0 °F 7.6 °F 14.0 °F 68% 30.20 in 10.0 mi NW 21.9 mph 26.5 mph N/A   Mostly Cloudy
11:55 AM 21.2 °F 6.0 °F 15.8 °F 80% 30.21 in 3.0 mi NW 19.6 mph 26.5 mph N/A   Overcast
12:15 PM 21.2 °F 3.3 °F 12.2 °F 68% 30.22 in 9.0 mi WNW 28.8 mph 34.5 mph N/A   Overcast
12:35 PM 23.0 °F 5.7 °F 10.4 °F 59% 30.24 in 10.0 mi WNW 28.8 mph 35.7 mph N/A   Mostly Cloudy
12:55 PM 19.4 °F 2.5 °F 10.4 °F 68% 30.25 in 10.0 mi NW 23.0 mph 31.1 mph N/A   Overcast
1:15 PM 19.4 °F 2.1 °F 8.6 °F 63% 30.27 in 10.0 mi NW 24.2 mph 28.8 mph N/A   Overcast
1:35 PM 19.4 °F 2.8 °F 8.6 °F 63% 30.27 in 9.0 mi NW 21.9 mph 29.9 mph N/A   Overcast
1:55 PM 19.4 °F 3.6 °F 8.6 °F 63% 30.29 in 10.0 mi NW 19.6 mph 29.9 mph N/A   Overcast
2:15 PM 17.6 °F 0.9 °F 8.6 °F 68% 30.31 in 10.0 mi NW 20.7 mph 31.1 mph N/A   Overcast
2:35 PM 17.6 °F -0.6 °F 8.6 °F 68% 30.32 in 10.0 mi NW 25.3 mph 31.1 mph N/A   Overcast
2:55 PM 17.6 °F 0.1 °F 8.6 °F 68% 30.33 in 10.0 mi NW 23.0 mph 28.8 mph N/A   Overcast
3:15 PM 17.6 °F 0.5 °F 8.6 °F 68% 30.35 in 10.0 mi NW 21.9 mph 28.8 mph N/A   Overcast
3:35 PM 17.6 °F 0.5 °F 8.6 °F 68% 30.36 in 10.0 mi NW 21.9 mph 29.9 mph N/A   Overcast
3:55 PM 17.6 °F 0.9 °F 8.6 °F 68% 30.38 in 10.0 mi WNW 20.7 mph 27.6 mph N/A   Overcast
4:15 PM 17.6 °F -0.3 °F 6.8 °F 63% 30.39 in 10.0 mi NW 24.2 mph 31.1 mph N/A   Overcast
4:35 PM 17.6 °F 1.3 °F 8.6 °F 68% 30.40 in 10.0 mi WNW 19.6 mph 28.8 mph N/A   Overcast
4:55 PM 15.8 °F -0.6 °F 6.8 °F 68% 30.42 in 10.0 mi WNW 18.4 mph 25.3 mph N/A   Overcast
5:15 PM 15.8 °F 0.3 °F 6.8 °F 68% 30.43 in 10.0 mi NW 16.1 mph - N/A   Scattered Clouds
5:35 PM 15.8 °F 0.3 °F 8.6 °F 73% 30.43 in 10.0 mi WNW 16.1 mph 23.0 mph N/A   Clear
5:55 PM 15.8 °F 1.4 °F 8.6 °F 73% 30.44 in 10.0 mi NW 13.8 mph - N/A   Clear
6:15 PM 15.8 °F 0.9 °F 6.8 °F 68% 30.44 in 10.0 mi NW 15.0 mph - N/A   Clear
6:35 PM 15.8 °F 1.4 °F 8.6 °F 73% 30.45 in 10.0 mi NW 13.8 mph 18.4 mph N/A   Clear
6:55 PM 15.8 °F 2.7 °F 6.8 °F 68% 30.46 in 10.0 mi NW 11.5 mph 16.1 mph N/A   Clear
7:15 PM 14.0 °F -1.4 °F 6.8 °F 73% 30.46 in 10.0 mi WNW 15.0 mph - N/A   Clear
7:35 PM 14.0 °F -0.8 °F 6.8 °F 73% 30.47 in 10.0 mi WNW 13.8 mph 18.4 mph N/A   Clear
7:55 PM 14.0 °F 2.0 °F 6.8 °F 73% 30.49 in 10.0 mi NW 9.2 mph - N/A   Clear
8:15 PM 14.0 °F 1.2 °F 6.8 °F 73% 30.49 in 10.0 mi NW 10.4 mph - N/A   Clear
8:55 PM 12.2 °F 0.7 °F 6.8 °F 79% 30.49 in 10.0 mi WNW 8.1 mph - N/A   Clear
9:15 PM 12.2 °F -1.0 °F 6.8 °F 79% 30.49 in 10.0 mi WNW 10.4 mph - N/A   Clear
9:35 PM 12.2 °F 4.3 °F 6.8 °F 79% 30.49 in 10.0 mi West 4.6 mph - N/A   Clear
9:55 PM 12.2 °F -0.2 °F 6.8 °F 79% 30.49 in 10.0 mi West 9.2 mph - N/A   Clear
10:15 PM 10.4 °F 2.2 °F 5.0 °F 79% 30.49 in 10.0 mi West 4.6 mph - N/A   Clear
10:35 PM 10.4 °F -0.4 °F 6.8 °F 85% 30.50 in 10.0 mi West 6.9 mph - N/A   Clear
10:55 PM 10.4 °F -1.5 °F 8.6 °F 92% 30.50 in 10.0 mi West 8.1 mph - N/A   Clear
11:15 PM 10.4 °F -0.4 °F 5.0 °F 79% 30.50 in 10.0 mi WNW 6.9 mph - N/A   Clear
11:35 PM 10.4 °F 0.8 °F 5.0 °F 79% 30.51 in 10.0 mi WSW 5.8 mph - N/A   Clear
11:55 PM 10.4 °F 4.0 °F 5.0 °F 79% 30.51 in 10.0 mi West 3.5 mph - N/A   Clear